Starlink 31846

operational
NORAD ID: 60126 Int'l Des: 2024-118 Owner: SPXS Country: US Constellation: starlink
LEOCIRCULAR

关于 Starlink 31846

正在加载描述...

实时位置

正在加载3D地球...

即将过境

高度历史

Altitude vs Time

uPlot chart will show altitude changes over time

两行轨道根数

1 60126U 24118P 25305.58675582 .00000475 00000-0 28182-4 0 9993
2 60126 53.1610 261.7191 0001276 94.6364 265.4783 15.30192727 76081
Epoch: Nov 1, 2025 • Age: 8 hours

当前状态

高度 482.7 km
速度 7.62 km/s
星下点 -24.12°S, 127.49°W
发射日期 Jun 24, 2024
运行时间 1.3 years
类型 internet

技术详情

分类 Payload
质量 730.00 kg
干质量 700.00 kg
总质量 730.00 kg
长度 0.30 m
直径 4.10 m
跨度 29.00 m
形状 Box + pan
制造商 SPXS
平台类型 Starlink V2M
阶段状态 In Orbit
所有者/国家 SPXS/US

大型星座

Loading constellations...